GFSNE_sfc_dewp_225.txt.gz
Dewpoint
65 66 65 65 65 64 63 62 60 53 53 56 53 52 53 53 51 53 53 49 48 47 47 48 50 52 54 55 55 55 56 56 55 53 51 50 46 43
64 64 64 64 63 63 62 61 60 58 56 54 52 51 52 51 50 51 51 49 47 46 45 46 47 49 52 53 53 54 54 53 52 50 48 45 43 45
63 63 63 62 60 60 60 59 57 56 54 51 51 51 51 51 51 52 51 51 51 46 46 46 46 47 50 50 51 51 50 50 49 47 45 43 45 46
61 60 59 58 57 57 57 56 55 55 53 53 52 51 51 49 51 50 48 48 48 46 45 45 45 46 46 47 47 47 47 47 46 46 45 46 47 48
59 58 56 55 54 54 54 52 52 52 52 51 50 50 47 49 49 48 46 46 45 44 44 44 44 44 45 45 45 45 44 44 43 43 43 45 47 48
54 53 53 53 53 53 52 52 51 51 50 50 49 47 49 47 46 45 45 44 44 43 43 43 43 44 43 43 43 43 43 43 43 43 42 42 43 44
49 49 50 48 47 48 52 52 50 51 50 49 47 46 45 44 45 45 44 42 42 42 43 43 43 43 43 42 43 42 42 42 42 42 42 40 40 40
47 47 46 44 41 40 40 41 47 48 47 46 45 45 45 45 44 44 44 41 42 42 41 39 41 40 41 42 41 41 41 41 41 41 40 39 39 38
45 43 41 42 42 42 38 37 37 38 41 44 43 43 43 44 44 42 42 42 43 41 40 36 37 37 38 40 40 40 40 40 40 39 38 37 36 36
41 41 41 40 39 40 41 42 40 40 40 42 43 44 44 44 43 42 42 40 37 38 40 36 35 35 35 38 40 40 39 39 38 38 36 35 35 35
36 36 36 36 37 39 38 36 36 35 37 37 38 38 38 38 40 41 38 37 35 35 36 36 34 33 33 33 38 39 38 38 38 37 37 36 36 34
35 35 36 36 36 36 37 35 35 34 35 35 35 38 39 41 38 41 40 37 36 34 35 36 34 35 32 34 34 36 37 37 37 37 36 36 35 32
36 35 35 35 36 36 36 35 35 33 33 35 35 35 35 35 39 39 40 38 36 37 37 39 35 34 34 33 33 34 34 35 35 35 36 35 35 31
36 36 35 36 36 36 35 33 33 34 34 33 34 34 35 35 35 35 34 36 38 36 37 37 35 36 35 32 31 33 33 34 34 33 34 34 33 32
35 35 35 36 35 34 33 32 32 35 35 34 34 34 35 36 35 34 34 34 35 36 35 35 35 34 34 34 33 32 31 33 34 33 34 34 30 30
33 34 34 34 33 34 35 36 37 36 35 34 33 34 35 35 35 37 36 36 36 35 35 35 35 34 33 34 33 33 33 31 34 34 33 32 31 30
34 35 36 35 36 36 36 35 34 33 33 33 33 33 32 31 32 33 33 34 34 34 34 34 34 35 35 33 32 33 34 33 33 33 32 30 30 30
37 36 35 35 35 33 33 32 33 32 31 31 31 31 30 30 30 31 33 32 33 34 33 34 33 32 32 33 35 34 34 33 32 33 31 30 29 30
36 35 35 35 34 31 30 31 31 31 31 31 31 31 32 31 31 31 32 33 33 33 34 34 33 31 28 28 31 34 32 32 31 31 31 30 28 29
33 33 33 32 31 30 30 31 31 32 33 32 32 33 33 32 31 31 31 32 31 30 31 32 33 31 30 31 32 31 32 33 30 29 29 30 30 30
31 30 31 31 31 31 33 34 35 35 34 35 32 33 35 33 32 32 32 32 32 31 30 31 31 31 33 35 32 29 31 33 31 29 29 28 26 25
31 31 30 31 32 33 35 35 34 34 34 33 32 33 33 33 31 33 33 33 31 31 29 30 33 33 34 30 28 32 28 31 32 32 31 28 27 24
32 31 32 33 33 34 32 34 33 33 33 32 32 32 33 33 32 31 30 31 32 32 30 30 33 34 33 30 29 29 28 29 28 28 29 29 28 25

GFSNE_sfc_dewp_228.txt.gz
Dewpoint
68 68 67 66 66 66 65 64 61 56 54 56 55 57 55 54 54 55 55 48 48 47 47 48 49 50 51 53 56 57 58 57 57 57 56 56 53 52
67 66 66 66 65 65 64 63 63 61 56 55 54 53 54 55 51 54 53 49 48 46 46 46 47 49 50 51 54 54 55 55 55 55 55 52 50 46
66 65 65 65 64 64 63 62 61 60 57 53 53 54 53 52 52 54 52 53 51 46 45 45 45 46 47 49 51 52 52 53 52 52 51 48 46 44
65 64 64 64 63 62 61 59 58 59 56 51 53 52 53 54 54 53 50 49 50 45 44 44 45 45 45 47 48 48 48 48 48 48 47 46 46 46
65 64 62 60 57 57 56 56 54 53 53 52 49 51 51 52 52 51 50 49 46 44 45 44 44 44 44 44 45 45 45 44 44 44 45 46 47 49
59 59 57 57 55 55 54 54 53 52 53 52 51 50 51 50 51 50 49 48 48 45 44 43 44 44 44 43 43 44 43 43 43 43 43 43 44 45
53 52 53 52 48 50 53 53 53 51 54 51 50 50 49 48 48 48 48 46 45 47 47 46 46 46 45 44 44 43 42 42 42 42 42 42 42 42
49 48 47 46 42 40 41 41 49 52 51 50 49 46 47 46 47 46 46 45 45 47 45 45 45 44 44 45 42 41 41 41 41 41 42 42 41 39
48 46 44 44 44 44 39 39 38 38 41 46 45 45 45 45 45 45 45 44 44 46 45 43 42 42 41 41 41 41 41 41 41 41 40 39 38 38
45 44 43 44 43 42 43 43 41 43 45 43 45 45 46 45 44 43 44 43 44 44 44 40 39 38 38 40 40 41 40 40 40 39 38 37 37 37
40 40 41 38 38 41 40 38 36 37 37 38 38 38 39 39 41 44 41 40 37 36 39 40 36 35 35 37 40 40 39 39 39 38 37 36 36 36
37 39 37 37 37 37 38 37 36 35 36 36 36 38 39 41 38 43 42 40 39 35 37 38 35 37 34 36 36 38 39 38 38 37 37 37 36 37
37 36 37 35 36 37 38 37 37 35 34 35 38 37 38 39 40 43 42 42 40 39 40 41 37 37 39 35 35 35 36 36 37 37 37 36 36 37
37 37 35 36 36 36 36 35 34 34 35 34 35 36 36 38 39 37 35 37 42 39 43 41 37 38 37 35 34 34 34 35 35 34 35 35 36 35
37 36 35 36 35 34 34 33 32 36 34 35 36 37 38 39 38 38 37 36 36 36 38 38 37 35 36 36 36 34 32 33 35 34 34 34 34 34
34 35 36 35 35 35 35 35 39 38 37 37 37 38 37 37 35 35 37 38 36 37 36 37 37 37 34 35 36 34 34 33 34 34 34 34 34 31
35 35 34 35 36 39 38 37 37 35 34 35 35 35 34 32 32 34 33 34 34 34 36 35 36 37 36 34 33 34 35 35 35 34 34 33 33 32
36 35 34 36 37 35 35 34 34 33 33 33 33 32 31 31 31 31 32 32 33 33 32 33 35 33 33 33 36 35 36 35 36 34 34 33 31 32
36 37 36 37 36 32 31 31 32 32 32 32 32 32 32 31 31 31 30 30 31 30 29 32 33 33 31 31 33 35 35 35 35 34 34 33 31 31
36 36 36 35 33 31 31 31 32 33 32 32 32 34 35 32 32 31 30 30 30 29 30 31 33 31 32 32 34 34 33 35 34 32 33 32 32 30
33 32 32 32 32 31 33 34 36 35 34 37 32 33 34 33 33 32 31 30 31 30 29 28 30 32 35 36 33 35 33 32 34 32 33 32 30 29
32 32 31 31 32 33 34 37 36 36 36 35 35 35 35 33 32 32 33 32 31 31 29 30 30 33 34 34 31 34 32 32 32 33 32 31 30 27
33 32 33 32 34 34 32 32 32 33 32 32 32 31 35 33 31 32 32 33 32 31 31 31 31 32 34 33 31 32 34 31 31 31 32 30 28 26

GFSNE_sfc_dewp_234.txt.gz
Dewpoint
66 65 65 65 66 67 66 64 62 59 57 57 57 58 58 58 55 56 53 50 48 47 47 47 47 48 49 50 51 51 52 57 59 59 59 59 58 57
66 66 66 66 67 66 66 65 64 63 60 57 56 55 55 56 53 55 52 49 47 46 45 46 45 45 48 49 50 51 51 54 57 57 57 57 57 56
66 66 67 67 66 66 65 65 64 63 61 53 53 53 53 52 52 52 51 50 47 46 45 45 45 45 45 45 47 49 51 53 54 55 56 56 55 51
65 66 66 66 66 65 65 64 63 62 59 52 52 51 51 52 52 52 53 54 49 45 45 45 44 44 44 45 46 47 48 50 50 51 51 51 50 48
66 66 66 65 65 64 63 62 61 56 55 52 49 50 50 52 52 52 51 50 47 45 45 44 44 44 44 44 45 45 45 46 45 45 46 46 47 48
66 66 65 64 63 62 59 58 55 54 52 51 49 49 50 51 52 49 46 48 47 45 44 44 44 44 44 44 44 45 44 44 44 44 43 43 44 46
63 63 62 60 54 56 57 54 54 53 52 50 50 50 48 49 48 49 45 40 41 43 44 46 45 45 45 44 44 44 43 43 44 44 43 43 43 44
56 52 50 49 47 45 47 47 52 53 52 51 49 48 48 49 49 45 41 39 37 43 42 41 44 42 43 44 43 42 42 42 42 43 43 43 42 41
53 50 48 47 47 45 40 39 39 40 46 52 49 48 46 46 46 43 41 41 40 41 41 37 39 38 41 41 41 42 41 41 41 41 41 41 40 40
51 50 48 47 47 46 46 42 39 38 39 47 48 47 47 47 46 45 43 41 39 39 42 35 36 35 36 38 41 41 41 40 40 40 40 40 39 39
46 46 46 45 43 43 42 37 35 34 36 38 38 37 38 39 43 43 37 37 34 34 37 36 34 33 33 34 36 40 40 40 40 40 39 39 38 38
38 39 40 40 39 39 40 37 35 34 34 34 35 38 39 39 40 42 40 34 32 33 34 36 33 33 33 33 34 35 36 39 39 39 39 38 37 35
38 36 36 38 38 39 38 36 34 34 34 34 34 34 35 36 35 37 38 34 33 30 36 37 34 34 34 32 32 33 34 35 35 37 38 38 37 36
38 36 35 37 38 37 36 36 35 34 34 34 33 33 34 34 34 34 33 34 35 34 37 38 34 34 33 33 32 32 33 34 34 34 35 37 37 36
37 36 36 36 36 34 35 34 34 34 34 33 33 33 33 33 34 33 34 34 34 34 35 35 35 34 34 34 34 32 32 33 34 34 34 34 34 34
34 35 35 34 34 34 33 34 35 34 34 33 34 33 32 32 30 30 28 33 33 33 34 34 35 35 33 34 34 32 33 31 33 33 33 33 33 34
35 34 34 34 33 33 33 34 35 35 34 36 35 35 33 32 31 32 30 32 31 31 32 34 34 35 34 33 33 34 33 32 33 33 32 32 32 33
35 34 34 34 33 34 34 34 35 36 35 34 32 34 33 33 32 32 32 30 30 30 30 31 33 32 32 33 35 33 33 33 32 32 32 31 31 33
36 35 34 34 35 35 35 36 35 35 35 35 34 33 32 33 31 31 31 31 32 30 32 32 33 32 29 28 32 35 33 34 33 32 32 32 31 32
36 35 34 35 36 36 35 35 35 36 35 35 34 32 32 32 32 30 30 29 31 31 31 32 32 33 31 29 30 33 34 34 33 32 31 33 33 32
35 35 36 35 35 35 35 35 35 34 33 34 32 33 33 31 32 31 31 30 31 31 30 30 32 31 34 33 31 31 32 34 35 34 33 31 31 30
37 36 36 36 36 36 35 34 34 33 32 31 31 32 33 32 31 31 30 28 31 32 31 32 33 33 32 33 31 31 32 30 33 33 33 33 31 26
34 34 34 35 35 35 35 34 33 33 33 32 31 33 33 32 32 31 32 32 32 31 31 30 33 33 32 32 31 30 31 33 29 32 32 29 28 28

GFSNE_sfc_dewp_237.txt.gz
Dewpoint
63 62 63 63 63 63 63 62 61 57 57 59 59 57 57 58 55 55 53 50 49 47 47 47 47 48 49 49 50 51 52 53 56 60 60 60 59 57
64 65 63 64 64 64 64 64 64 62 60 58 55 55 56 55 53 55 52 49 47 46 46 46 46 46 47 48 49 50 51 51 54 58 58 58 58 57
65 64 65 65 65 65 65 65 64 63 62 54 54 53 53 53 52 52 50 49 47 46 45 45 45 45 45 45 45 48 49 52 53 56 56 57 57 55
65 65 64 65 65 66 66 65 64 64 63 57 51 51 51 52 52 51 51 51 48 46 45 44 44 44 44 45 46 47 47 50 51 52 53 54 53 51
66 65 65 65 65 65 65 64 63 59 59 53 50 50 50 51 52 52 51 50 47 46 45 44 44 44 44 44 45 46 46 46 46 46 47 47 48 49
65 65 64 64 65 65 64 63 60 58 55 52 50 49 50 51 52 49 47 48 46 45 44 43 44 44 44 44 44 44 44 44 45 44 44 44 44 46
64 64 65 63 57 60 62 59 58 55 53 52 50 49 48 49 49 48 44 39 40 41 41 44 43 44 44 44 44 44 43 44 44 44 43 43 43 44
64 64 63 54 53 49 49 49 55 55 53 51 49 48 48 50 49 47 41 38 39 42 42 41 43 42 43 43 43 43 42 42 43 43 43 42 42 42
63 57 52 52 51 50 42 42 42 44 49 53 51 49 48 49 48 44 42 41 39 41 41 36 37 38 40 41 41 42 42 42 42 42 42 41 41 40
58 56 54 48 48 48 48 45 42 42 44 50 51 50 49 48 49 44 41 40 39 38 41 35 34 35 35 37 41 41 41 41 40 40 41 40 40 40
53 51 50 47 42 45 44 38 35 33 37 39 39 39 41 42 44 44 37 38 33 34 35 34 33 33 33 33 36 40 40 40 40 40 40 40 39 39
42 42 42 44 40 41 43 40 37 35 36 36 37 39 40 41 40 42 41 37 33 33 34 36 33 33 32 33 33 34 35 39 39 40 39 39 38 36
43 39 37 40 41 42 42 41 38 35 34 35 35 35 35 35 36 37 37 34 33 33 35 36 33 33 31 33 32 33 34 34 35 37 39 38 37 36
42 38 37 41 41 39 37 35 35 34 34 34 34 33 34 34 34 34 33 35 35 35 37 35 33 31 33 32 26 31 33 33 34 33 34 37 37 37
41 38 39 40 39 38 35 35 34 34 34 33 33 33 33 33 33 32 32 33 33 33 34 35 34 33 33 32 32 31 32 32 33 33 34 34 34 34
37 38 37 36 35 35 33 34 34 34 34 34 34 33 33 33 33 32 31 31 29 25 31 34 35 35 33 34 33 32 32 32 32 33 33 33 33 34
36 35 35 35 35 33 33 33 34 34 33 33 33 33 33 33 32 31 30 29 25 24 24 31 34 34 34 33 32 33 32 32 33 33 32 32 32 33
40 35 34 34 33 33 33 33 33 33 34 35 35 35 34 33 33 32 31 30 28 27 27 29 32 32 32 33 35 33 33 33 33 32 32 31 31 32
40 38 35 34 33 33 33 34 34 35 36 35 35 35 34 34 33 32 32 30 30 28 28 31 32 32 29 28 29 35 31 31 32 32 32 32 31 32
39 38 35 35 35 35 34 35 36 36 35 35 35 34 34 33 32 31 31 28 30 29 30 31 32 32 31 30 29 30 33 32 32 32 31 32 32 32
35 34 36 34 35 36 36 36 35 35 35 34 33 33 32 32 31 31 31 29 29 30 30 30 31 32 32 32 31 29 28 34 35 34 33 31 30 30
36 36 37 35 34 35 35 34 33 33 33 33 32 32 32 31 30 30 31 30 31 31 31 32 32 31 30 32 30 30 30 30 33 34 34 33 31 27
36 35 34 33 34 34 34 33 33 33 32 32 32 32 32 32 31 31 30 31 31 31 31 30 28 29 31 33 32 31 29 26 29 30 32 33 32 30

GFSNE_sfc_dewp_240.txt.gz
Dewpoint
61 60 60 60 60 61 61 60 59 56 56 57 58 57 58 58 56 56 55 50 49 48 48 48 49 49 49 50 50 50 51 52 53 55 60 60 60 59
62 62 61 61 62 62 62 62 61 60 58 58 56 54 57 56 54 55 53 50 47 46 46 47 47 47 47 47 47 49 50 51 51 55 58 59 59 58
64 63 63 62 62 63 63 62 62 62 60 58 53 54 54 53 53 52 50 49 47 46 45 45 45 44 44 45 45 46 48 50 51 54 57 58 57 57
64 64 63 64 63 63 63 63 63 63 63 61 52 52 52 53 52 50 50 50 48 46 45 44 44 44 44 44 45 45 47 49 50 51 54 54 55 53
65 65 65 64 64 64 64 64 64 62 63 57 51 50 50 51 51 51 50 49 48 46 44 43 44 44 44 43 44 44 45 46 46 47 47 48 49 51
66 65 65 65 64 64 65 65 64 63 59 55 50 49 50 51 52 49 46 47 45 45 45 44 44 44 44 43 44 44 45 45 45 44 44 44 44 46
65 65 65 63 58 61 64 64 63 62 59 55 50 49 48 49 49 48 45 40 40 43 43 44 42 42 43 43 44 44 44 44 44 44 43 43 43 44
65 65 65 56 55 51 51 52 59 61 58 56 52 49 48 49 50 47 41 40 40 42 42 39 43 42 42 42 43 43 43 42 43 43 42 43 43 42
65 65 63 61 56 60 49 48 48 48 53 57 54 52 49 51 50 46 43 43 42 41 41 37 36 38 40 41 41 42 42 42 42 42 42 41 41 40
65 65 64 59 60 60 56 52 49 49 49 53 56 52 52 51 50 49 46 41 39 38 38 35 34 34 35 36 40 41 41 41 41 41 41 40 40 40
64 61 61 59 52 48 51 43 37 35 38 42 45 44 43 44 45 45 41 41 34 34 35 35 33 33 33 33 35 39 40 40 40 40 40 40 40 39
45 49 46 53 46 45 52 44 39 35 37 37 37 40 42 42 41 47 43 40 34 33 35 35 33 34 32 33 33 34 34 39 40 40 40 40 38 36
43 41 40 42 43 45 48 47 41 37 37 37 36 36 37 36 36 38 39 40 34 31 34 36 33 33 33 31 32 33 34 34 34 36 39 39 38 36
43 41 38 41 42 43 42 40 39 38 37 36 36 35 36 35 34 35 34 35 34 34 37 35 33 32 30 31 25 32 33 32 34 34 34 37 37 37
36 38 42 40 40 39 39 38 38 38 38 37 36 35 34 34 34 33 33 34 34 35 36 35 33 31 28 27 27 30 31 32 32 33 33 34 34 33
35 36 37 38 41 38 36 38 41 41 40 39 35 33 34 34 33 33 32 32 31 30 33 33 35 35 33 33 33 32 32 31 32 33 33 33 33 33
34 34 34 36 36 35 36 38 38 36 36 34 33 33 33 33 33 32 32 31 28 28 29 32 33 33 34 33 32 33 32 32 33 32 32 32 32 33
34 34 34 35 36 36 37 36 36 34 34 33 33 33 33 33 33 32 32 31 31 29 30 31 32 32 32 32 34 29 31 33 33 32 32 31 31 32
34 36 35 35 35 36 36 35 33 34 34 34 33 33 33 33 33 32 32 31 31 30 29 31 31 31 29 27 30 33 29 31 32 31 32 32 31 32
34 35 35 36 35 35 35 34 34 35 35 35 35 34 34 33 32 32 32 31 31 30 30 30 30 31 30 28 27 29 33 29 30 32 31 32 32 32
34 34 34 34 35 35 36 35 34 34 35 35 35 34 34 33 32 32 32 31 31 31 30 30 31 31 31 32 30 27 28 33 33 33 32 31 29 29
34 34 34 35 35 34 34 33 33 33 33 33 32 32 33 33 32 32 31 31 31 31 31 31 31 29 30 31 31 29 29 29 33 33 33 32 30 27
35 35 34 34 34 34 34 33 33 32 32 32 32 32 32 32 32 31 30 29 30 29 29 28 29 29 30 31 31 31 31 30 30 29 32 32 32 31

GFSNE_sfc_dewp_243.txt.gz
Dewpoint
61 60 60 60 60 60 60 59 57 55 55 56 58 57 58 60 57 58 57 50 49 49 49 50 51 50 50 49 49 50 50 52 52 53 54 57 60 60
62 61 61 60 61 61 61 60 60 58 56 57 57 56 57 57 54 57 54 50 48 47 47 47 48 47 47 47 47 47 48 50 50 52 55 57 59 58
63 62 61 61 61 61 61 61 60 60 58 59 55 54 55 55 54 53 51 49 48 46 46 45 45 45 45 45 45 45 46 48 49 51 53 57 58 57
63 63 63 62 62 62 62 61 61 61 60 59 56 53 54 54 53 50 50 50 48 46 45 45 44 44 44 44 44 45 46 48 49 50 51 54 56 54
64 64 64 63 63 63 63 63 63 62 62 61 59 51 50 52 50 50 50 48 47 46 44 44 44 44 44 44 43 44 44 45 47 47 48 48 49 51
65 65 65 64 64 64 64 63 63 63 63 62 54 50 50 51 52 49 46 47 46 45 44 43 44 44 43 43 44 45 45 44 44 44 44 43 45 47
65 65 65 63 57 61 64 64 64 63 63 62 54 49 49 49 49 49 46 41 40 43 44 44 44 43 43 43 44 44 43 44 44 44 44 43 44 44
65 65 65 57 56 50 51 53 60 63 62 60 58 54 50 50 50 48 41 40 41 43 42 41 44 41 41 41 42 43 42 42 43 43 43 43 43 43
65 65 65 64 57 63 51 47 49 50 55 61 60 57 52 51 50 47 45 46 45 43 42 37 37 36 39 41 41 42 42 42 42 42 41 41 41 40
62 64 65 64 63 61 62 60 58 59 58 57 61 59 56 54 53 50 48 44 39 39 41 35 34 34 35 37 40 41 41 41 41 42 41 41 40 40
57 58 61 63 56 49 60 58 50 43 38 44 50 50 47 48 50 48 42 43 34 34 36 35 33 33 33 33 35 39 40 40 40 41 41 40 39 39
47 49 45 49 49 46 56 58 44 43 40 40 42 46 48 47 45 50 47 45 34 34 36 34 33 33 32 33 33 34 36 39 40 40 40 40 39 36
41 43 42 42 42 42 44 58 46 41 39 41 42 42 42 44 45 46 48 45 38 34 36 34 33 33 30 31 32 33 34 34 34 37 39 39 38 37
41 42 39 40 41 40 40 39 39 38 38 38 38 38 39 38 36 37 34 35 35 34 37 34 33 34 33 30 30 32 32 33 34 34 34 38 38 37
38 38 38 38 38 37 38 37 37 39 40 39 40 38 39 37 35 34 34 34 34 35 34 34 34 33 33 31 30 30 31 32 32 33 33 34 33 33
35 35 35 35 35 35 34 36 38 41 42 43 42 38 36 36 35 36 35 35 34 32 33 34 34 33 32 32 30 30 32 30 32 32 32 32 33 33
33 33 33 33 33 33 34 35 36 37 38 38 38 37 38 35 34 34 34 32 31 31 30 32 33 34 33 33 32 32 32 32 32 32 32 32 32 33
33 33 33 34 34 34 34 34 35 36 36 37 37 35 34 34 32 33 32 31 31 31 30 31 32 32 32 32 34 31 32 32 32 32 32 31 31 32
35 34 34 34 34 35 35 34 33 34 35 34 34 33 33 32 32 31 31 31 31 31 32 32 32 31 28 27 30 33 28 30 30 31 32 32 30 30
34 34 34 34 34 34 34 34 34 35 34 34 34 33 33 32 32 32 32 32 32 31 31 31 32 31 29 28 28 29 32 29 30 29 30 32 32 32
33 33 34 35 34 34 34 34 34 34 34 34 33 33 33 32 32 32 32 32 31 31 30 30 31 31 31 31 30 28 28 32 31 31 32 30 29 29
33 34 34 34 34 34 33 33 33 33 33 33 33 32 32 32 32 32 32 32 32 32 31 32 31 31 31 30 28 27 26 28 31 33 33 32 30 27
33 34 34 34 34 34 34 34 34 34 33 33 32 32 32 32 32 32 32 32 31 31 30 29 29 29 30 30 29 29 28 28 30 30 31 32 32 31

GFSNE_sfc_dewp_246.txt.gz
Dewpoint
61 61 60 60 60 60 60 59 58 56 57 59 58 60 60 61 59 60 60 51 50 50 51 52 53 53 51 51 51 50 50 51 51 51 53 54 57 60
62 61 61 61 61 61 60 60 60 58 57 60 58 59 59 58 56 60 57 51 49 48 48 48 49 49 49 49 48 47 48 48 49 50 52 54 57 59
62 62 61 61 61 61 61 61 60 60 58 59 59 57 57 57 55 55 52 51 49 47 46 46 46 46 46 46 45 46 46 47 49 50 52 54 57 57
63 62 62 62 61 62 62 61 61 61 60 59 60 55 56 56 55 52 51 50 49 46 46 45 45 44 44 44 44 45 46 47 47 49 49 53 55 55
64 63 63 63 63 62 62 62 61 61 61 60 60 53 52 53 51 50 50 49 48 46 45 44 44 44 43 44 43 44 44 46 47 47 48 48 50 51
64 64 64 64 63 63 63 62 62 62 62 61 60 53 52 51 53 50 46 47 46 45 44 44 44 44 43 44 44 44 45 45 45 45 44 44 45 46
64 64 64 62 57 59 64 64 63 62 62 62 61 51 50 50 51 49 48 44 41 44 44 44 44 44 44 44 45 44 44 44 44 44 44 43 43 44
64 64 64 56 55 49 49 51 59 63 62 62 62 56 55 54 53 50 42 40 40 44 43 42 44 42 42 43 43 42 42 43 43 43 43 44 43 42
61 62 63 63 56 63 51 47 47 46 53 63 62 61 59 55 54 51 47 48 48 44 45 38 40 38 42 41 42 42 42 42 42 42 42 41 42 41
57 58 59 60 60 60 61 61 58 59 56 56 62 64 62 58 56 54 51 49 42 44 45 36 36 34 36 39 41 42 42 41 42 41 41 41 41 40
53 54 54 55 50 46 54 56 53 48 42 46 48 49 47 48 53 55 46 45 37 36 40 36 33 33 33 34 38 41 41 40 41 41 41 40 40 40
45 46 43 45 43 41 46 49 50 43 39 40 42 49 47 49 44 55 49 47 37 36 37 35 33 34 33 33 34 37 39 39 39 40 40 40 39 41
40 40 40 40 40 40 41 43 46 37 36 37 37 37 39 45 48 47 50 49 41 39 40 38 34 33 34 32 33 34 35 36 37 40 40 40 39 39
42 40 38 39 40 40 38 39 38 36 36 36 37 36 38 40 42 42 41 45 42 41 41 39 35 35 32 32 32 32 33 34 35 36 36 39 38 37
38 38 37 37 38 36 37 37 35 37 36 36 38 39 37 37 36 34 34 35 35 37 37 35 36 34 34 32 31 32 33 33 34 35 35 35 35 35
36 36 35 33 34 35 34 35 36 38 40 42 43 37 35 36 35 35 35 35 34 33 34 35 35 34 33 32 32 32 32 32 33 33 35 34 34 36
34 33 34 34 35 35 35 35 35 36 37 36 35 35 35 35 34 36 35 34 34 32 31 33 35 35 34 33 32 33 32 33 34 33 33 33 34 34
35 35 35 35 36 35 35 34 35 35 36 36 36 35 34 33 33 33 34 34 32 32 31 32 33 33 32 33 35 32 33 33 33 33 33 31 32 33
36 35 35 35 36 35 35 35 33 34 35 34 34 34 34 33 33 33 33 33 31 31 31 32 32 31 29 28 32 33 32 32 32 31 33 33 33 32
34 35 35 35 35 35 35 34 34 34 34 34 34 34 34 34 33 33 33 33 32 32 31 32 32 32 30 29 30 32 32 31 31 31 31 32 33 32
34 34 35 34 34 35 34 34 34 34 34 33 33 33 33 33 32 32 33 32 32 31 30 31 32 32 32 33 31 30 32 32 32 31 31 30 31 31
35 34 34 35 34 34 33 33 33 33 33 33 33 34 33 33 33 32 32 32 32 32 32 32 32 32 32 31 28 29 29 31 32 32 33 31 30 28
33 33 33 33 33 33 33 33 33 33 33 33 33 33 34 32 33 32 32 32 32 32 32 31 31 32 31 30 29 29 29 29 31 31 32 32 32 31

GFSNE_sfc_dewp_249.txt.gz
Dewpoint
65 66 64 64 64 63 63 62 61 59 60 62 62 64 64 65 62 63 64 55 51 51 52 54 55 55 55 55 54 54 54 53 53 53 52 53 55 58
64 64 64 64 64 64 64 62 62 61 60 61 63 64 64 63 61 64 64 54 50 49 50 51 52 52 52 51 51 51 51 51 51 51 51 53 55 57
65 65 65 65 64 64 65 63 63 62 59 60 63 64 64 63 61 62 57 57 54 49 48 48 48 48 48 48 48 48 48 49 50 50 51 53 57 58
65 65 64 64 65 65 65 64 64 63 61 60 62 64 62 62 62 58 54 53 53 48 47 47 46 46 45 45 45 45 46 46 48 49 50 54 56 56
65 65 65 65 65 65 65 64 64 63 63 61 61 64 62 58 55 54 53 52 50 48 45 45 45 45 44 44 44 44 44 46 46 47 46 49 51 52
65 66 65 65 65 65 65 64 64 63 62 62 61 61 57 55 57 54 49 50 49 47 46 45 44 44 44 44 43 44 44 45 46 45 45 45 45 47
65 65 65 63 57 61 65 65 64 63 62 61 61 60 53 52 53 54 54 49 44 47 45 44 44 46 44 44 45 44 44 44 45 45 45 44 44 45
64 64 65 57 57 50 49 50 59 63 62 62 62 61 57 58 57 55 51 44 42 45 45 43 45 45 45 46 45 43 43 44 44 44 44 43 43 43
61 62 62 64 58 65 53 46 46 46 50 63 62 62 62 59 59 55 52 51 53 49 47 42 44 42 44 44 43 43 43 43 43 42 42 43 42 42
59 59 59 59 59 58 60 61 61 62 59 56 59 63 64 63 59 57 55 52 43 46 49 39 39 36 39 42 42 42 42 41 41 42 41 41 41 41
56 56 56 56 50 47 53 51 49 49 43 45 48 49 48 46 52 58 45 46 36 36 41 37 35 33 34 35 41 42 41 41 41 41 41 41 40 40
52 51 43 48 44 42 49 48 47 42 40 42 48 52 48 51 43 56 53 50 37 35 38 39 36 35 34 35 36 40 41 39 40 41 41 41 41 43
44 45 44 41 40 40 40 45 45 37 38 39 41 44 44 48 51 52 56 54 45 45 41 43 38 37 38 33 34 35 39 39 42 42 40 40 40 42
46 46 39 40 39 39 39 39 37 36 37 37 39 40 42 43 42 42 43 49 45 46 43 45 42 39 33 33 32 33 36 38 40 39 39 39 38 39
44 41 38 38 37 36 37 37 35 40 39 37 38 39 39 38 36 35 35 35 35 35 42 40 38 40 39 36 32 34 33 34 38 38 38 38 37 38
39 41 39 37 35 37 37 38 39 41 41 42 43 40 37 36 36 35 35 35 34 33 34 35 36 37 34 34 34 33 35 33 36 36 37 37 37 39
38 37 38 40 42 43 45 43 40 39 39 41 40 37 36 35 35 36 35 34 33 33 32 33 35 35 34 34 33 33 33 33 35 34 34 34 34 36
37 40 39 40 41 43 44 43 41 38 40 40 38 37 35 35 34 34 35 34 32 32 33 33 33 33 33 33 34 32 33 32 32 33 35 34 34 35
36 41 40 39 40 41 39 39 39 39 38 37 37 36 35 34 34 34 33 32 32 33 34 33 33 32 30 30 32 33 33 32 32 32 34 34 33 34
38 39 39 39 39 39 39 39 37 36 35 36 35 35 35 34 34 34 34 34 33 32 33 34 34 34 32 31 31 32 34 33 33 32 32 34 34 32
36 37 39 39 38 39 39 37 36 35 35 35 35 35 34 35 35 34 34 33 33 32 31 32 33 33 34 35 32 31 32 33 34 33 33 32 32 32
36 37 37 37 37 37 37 35 34 34 34 34 34 34 34 35 34 33 33 32 32 32 32 32 34 34 34 32 31 30 30 32 33 32 32 32 32 29
34 35 35 36 36 36 35 34 34 33 34 33 33 33 33 33 34 32 32 33 32 32 32 32 32 34 32 31 31 31 30 31 31 32 34 32 32 31

GFSNE_sfc_dewp_252.txt.gz
Dewpoint
67 66 64 62 63 62 62 62 61 60 59 61 61 64 65 64 62 65 65 57 52 51 51 54 57 57 57 58 58 58 58 58 58 57 56 55 55 56
64 65 65 64 64 64 64 64 64 63 61 61 62 64 65 63 62 65 64 57 51 50 50 52 53 55 55 55 55 55 55 55 55 55 54 54 54 56
65 65 65 65 65 65 65 65 64 64 62 63 63 65 66 66 66 65 64 66 64 50 50 50 50 51 52 52 51 51 51 52 52 53 52 52 54 56
65 65 65 65 66 67 66 66 65 66 64 63 64 64 65 66 66 66 65 62 63 53 49 49 48 49 48 48 48 47 48 48 48 49 50 52 54 57
66 66 65 65 65 65 65 65 66 65 65 64 63 64 65 66 64 62 61 59 57 52 47 46 47 47 47 46 46 45 45 45 45 46 47 48 51 54
66 65 64 63 64 64 65 65 65 64 64 64 63 62 63 65 62 59 56 56 54 51 48 47 46 46 45 45 44 45 44 45 45 46 45 44 46 48
63 63 63 60 55 57 64 65 65 64 63 63 62 62 61 55 57 60 58 58 52 51 50 48 47 47 47 44 45 44 44 44 45 46 45 44 45 45
61 62 62 54 55 50 49 48 56 64 64 63 63 61 62 60 61 61 58 49 48 48 50 49 48 47 47 46 44 44 43 44 45 45 45 45 44 44
61 62 62 62 57 64 52 47 46 44 47 60 62 63 63 64 61 61 57 53 57 57 50 47 46 45 47 46 44 43 43 43 43 43 44 43 43 43
57 58 59 60 60 61 60 59 59 60 59 53 56 59 62 64 63 62 60 56 45 46 50 41 41 41 43 46 43 43 42 42 43 43 42 42 42 42
47 55 56 56 51 46 55 55 54 52 43 43 44 43 43 43 45 56 47 46 39 37 46 40 36 35 35 38 43 42 41 41 41 41 41 41 41 41
47 48 44 48 42 42 51 52 50 45 41 45 51 51 49 51 43 51 56 52 41 36 39 44 36 36 34 36 37 42 42 40 40 41 41 41 40 45
47 49 49 42 41 41 40 48 49 38 38 39 42 45 46 48 50 52 53 53 50 45 42 45 37 36 38 34 35 38 40 39 41 41 41 41 41 43
43 47 43 40 40 40 39 40 38 36 38 39 40 42 44 46 45 45 43 45 45 47 44 46 38 40 35 34 33 35 38 39 40 40 41 41 40 40
43 41 38 38 39 39 37 36 35 43 41 39 41 42 42 44 40 38 37 37 36 36 41 44 42 41 41 35 34 35 35 37 40 39 39 39 39 39
37 41 38 35 37 39 39 43 45 45 45 44 44 46 43 42 41 40 39 37 36 34 35 37 39 41 35 36 38 35 37 34 38 38 38 37 38 38
36 39 38 38 39 42 43 45 45 45 44 44 44 43 41 40 39 38 36 36 36 34 33 34 36 36 36 35 34 35 33 35 37 36 36 34 37 38
34 35 35 38 40 42 42 45 45 42 44 43 44 43 41 39 38 36 36 35 35 33 33 33 34 34 35 34 37 34 34 34 35 35 36 35 33 33
33 34 35 38 40 41 43 43 43 43 43 42 42 41 39 37 36 36 36 35 34 34 34 34 35 36 33 32 35 34 34 35 35 32 33 34 34 33
35 36 38 39 39 40 41 41 42 42 42 41 39 39 38 36 35 35 35 34 34 33 33 34 34 34 33 32 30 31 34 33 33 32 33 33 35 33
37 37 38 38 38 40 41 41 40 39 39 38 37 36 36 36 35 35 35 34 34 34 32 31 32 32 33 34 31 30 32 33 35 34 34 33 32 32
35 36 36 37 38 39 39 37 37 36 36 36 34 34 34 36 34 34 34 33 33 32 31 32 34 34 34 32 30 30 31 33 33 33 33 33 32 30
32 33 33 34 36 36 36 36 35 35 35 34 34 34 33 33 33 33 33 33 33 33 33 33 34 34 34 33 31 31 31 32 32 32 33 32 31 31

GFSNE_sfc_dewp_255.txt.gz
Dewpoint
66 66 64 62 61 60 60 59 59 59 60 62 62 66 66 67 65 67 67 60 52 51 51 52 54 55 57 59 60 60 61 61 61 60 60 59 59 58
64 65 65 64 63 62 62 63 63 62 61 62 63 65 66 64 65 67 67 58 52 50 49 50 51 53 55 57 57 57 58 58 58 58 58 57 57 56
65 64 64 65 64 63 65 64 64 64 62 63 64 65 67 68 67 67 66 67 65 51 49 49 49 50 52 54 54 54 55 55 55 55 55 55 55 55
64 65 64 63 65 65 65 66 65 66 64 62 64 64 66 66 68 68 68 65 65 56 50 49 48 48 49 50 51 51 51 51 51 52 52 53 54 54
65 65 65 65 65 66 66 66 66 66 66 64 63 64 64 66 66 67 66 66 63 56 50 47 47 48 48 48 49 48 48 48 47 47 48 48 49 52
64 65 65 65 64 65 65 65 65 65 64 64 63 62 63 64 64 63 63 61 60 59 54 50 48 47 46 46 46 46 46 46 46 45 45 45 45 47
55 61 64 62 57 60 64 65 64 63 63 63 63 62 61 59 60 61 60 62 59 60 58 54 52 50 50 45 47 46 45 45 45 45 45 44 44 45
51 55 59 57 57 47 47 49 57 59 59 59 59 61 60 62 62 61 61 51 54 55 55 55 51 52 51 51 48 46 44 43 43 44 45 45 43 44
47 52 57 57 56 61 50 46 48 47 51 58 60 61 61 62 63 61 60 57 59 60 54 50 49 50 52 50 45 43 43 43 43 43 43 44 43 43
45 45 49 56 56 52 56 56 57 57 51 49 56 59 60 58 56 56 57 57 49 46 52 44 42 42 45 48 45 43 42 42 42 43 43 43 42 42
41 42 45 49 47 43 52 53 53 52 45 44 43 42 41 41 44 54 53 51 48 39 45 43 37 36 36 38 45 43 42 42 41 42 42 42 42 41
42 43 41 44 41 40 46 49 50 46 41 46 50 49 47 49 43 52 54 51 49 37 40 44 36 38 36 36 39 42 43 40 41 41 42 42 42 45
40 41 43 41 41 41 40 45 46 37 37 39 42 44 44 46 48 51 52 52 49 47 43 46 36 37 38 36 35 37 41 39 41 41 41 42 41 44
37 41 41 40 38 38 38 39 38 36 37 38 39 41 42 43 43 44 43 45 45 43 44 47 39 40 37 34 35 34 37 38 41 40 41 41 41 40
37 37 36 36 36 36 36 37 35 42 39 38 40 41 40 43 41 40 38 39 38 38 38 41 41 39 40 36 34 34 35 36 40 40 40 40 41 40
35 37 35 33 34 35 36 40 41 43 43 44 44 46 42 42 43 42 39 38 37 38 36 36 38 39 36 37 36 34 36 35 38 39 39 39 39 40
34 35 35 36 36 36 38 42 43 44 43 44 44 44 43 42 41 41 38 37 36 37 35 35 35 36 35 34 34 35 36 34 38 37 38 36 37 38
33 33 33 34 35 35 37 41 42 41 45 45 44 42 41 41 40 39 38 37 36 36 34 34 34 34 34 34 34 34 34 34 36 36 36 33 33 34
32 33 34 34 35 36 39 41 41 41 44 42 43 42 39 39 37 36 36 36 35 35 35 34 34 34 33 32 32 34 33 33 33 32 33 34 32 32
35 35 35 36 37 38 39 39 39 40 40 41 40 40 40 38 36 36 35 35 35 34 33 34 34 34 34 31 30 30 34 34 33 32 31 32 32 32
32 33 34 36 37 37 37 37 36 37 37 37 38 37 36 37 36 36 35 34 34 34 32 32 32 33 34 33 30 30 31 34 35 34 34 32 31 32
32 32 32 32 33 35 36 35 35 35 35 35 35 35 35 36 35 34 34 33 33 32 32 33 34 35 35 31 30 30 30 31 32 32 33 33 34 30
32 32 32 32 32 32 33 34 34 34 34 34 34 34 33 34 34 34 34 33 33 33 33 33 34 35 34 33 31 31 31 31 32 31 31 32 31 31

GFSNE_sfc_dewp_261.txt.gz
Dewpoint
50 52 53 59 63 61 60 58 55 52 51 52 55 59 60 61 62 63 62 58 53 52 52 52 54 55 55 56 57 57 59 60 61 62 63 63 64 64
49 48 50 53 54 60 63 61 59 57 55 55 53 52 54 56 61 64 64 58 54 52 51 51 51 53 53 53 54 54 55 57 59 61 61 62 63 62
46 46 48 50 52 55 58 62 62 60 57 57 57 55 54 59 57 62 63 63 62 52 51 50 49 49 50 50 51 52 52 54 56 58 59 60 61 61
43 44 45 49 50 52 55 56 56 58 60 60 58 57 55 58 63 64 65 65 64 56 51 50 49 48 47 48 48 48 49 50 52 54 56 57 59 59
41 42 43 46 48 50 51 53 54 54 57 57 58 62 62 62 62 64 63 63 63 58 51 49 48 48 48 47 47 47 47 48 48 50 51 52 53 55
40 41 43 45 46 47 48 48 53 51 54 56 57 57 58 61 63 63 63 61 62 59 55 53 50 48 48 47 46 46 47 47 47 48 47 47 47 50
38 39 42 44 42 43 45 50 50 50 49 52 54 56 58 58 59 60 62 62 57 58 59 58 57 54 52 47 48 47 46 46 48 47 47 46 45 46
37 37 38 41 44 41 42 42 42 47 47 50 50 50 51 55 57 56 56 56 56 56 58 58 55 54 55 53 49 46 45 45 45 45 46 45 44 44
36 36 36 38 41 44 43 41 42 41 42 46 50 50 50 50 50 52 56 57 57 56 56 49 51 53 54 52 46 45 44 44 44 44 43 43 43 42
33 34 36 36 37 37 41 41 42 44 46 46 46 48 49 48 49 49 51 58 54 48 54 46 40 43 40 49 46 45 44 43 43 43 42 42 41 42
34 36 36 35 35 36 38 38 37 38 39 40 41 41 41 41 43 48 47 49 42 39 43 43 35 36 34 36 41 43 43 42 42 42 41 41 41 41
35 35 35 36 35 35 37 37 35 35 35 36 37 41 43 45 42 47 48 46 40 38 40 42 36 36 37 35 35 37 39 40 40 41 41 41 40 42
33 34 35 35 36 36 36 36 34 35 34 34 36 38 39 42 44 45 48 47 42 41 41 43 35 35 36 36 34 34 35 36 36 39 40 40 40 42
32 34 35 35 35 35 35 34 33 33 34 34 34 36 37 37 39 39 41 42 41 41 43 44 37 37 36 35 37 34 34 35 35 35 36 39 39 40
34 34 34 35 35 33 34 33 32 34 34 34 32 35 37 39 39 38 38 37 37 37 39 39 38 37 37 37 36 33 34 34 35 35 36 37 37 38
32 34 34 32 33 33 34 34 35 36 35 36 36 38 38 35 36 36 35 34 34 34 34 35 36 36 34 36 36 34 34 36 34 35 35 34 36 39
30 30 30 32 33 34 35 35 36 36 36 38 38 38 37 38 36 38 34 34 34 33 33 33 34 34 33 33 33 34 34 34 35 35 35 34 34 37
28 29 29 30 30 31 32 34 36 36 38 40 39 39 37 35 35 35 34 34 33 33 33 33 33 32 32 32 34 33 33 33 33 34 34 33 33 34
28 28 28 29 30 31 31 32 32 34 36 36 36 36 35 34 34 33 33 33 33 33 33 33 33 32 32 32 32 33 32 32 33 32 33 33 33 33
27 28 28 28 29 30 31 31 32 33 33 33 34 33 34 34 33 33 33 33 33 33 32 33 32 33 32 32 30 31 33 33 32 31 30 31 31 32
25 26 27 28 28 29 30 31 32 32 32 32 32 32 33 33 33 33 33 33 33 32 32 31 32 32 32 32 29 28 31 34 34 32 32 31 30 30
26 26 25 27 27 28 29 30 31 32 32 32 32 32 33 33 32 32 32 32 32 32 31 32 33 33 32 30 28 28 29 31 33 32 33 32 31 27
27 27 26 26 26 27 27 28 28 31 32 32 32 32 33 32 33 32 32 32 32 32 32 32 32 32 30 30 29 29 29 29 30 30 30 31 31 32